Dati Storici

Data ora Umidita' aria (%) Temperatura aria (°C) Rad globale (W/m²) Gonioanemometro (°) Tacoanemometro (m/s) Pioggia (mm)
04-11-2012 00:10 91.2 % 11.571 3.545 6.105 0.839 0
04-11-2012 00:00 91.4 % 11.599 3.442 11.793 1.735 0
03-11-2012 23:50 91.4 % 11.659 3.286 32.989 1.63 0
03-11-2012 23:40 91.7 % 11.737 3.338 22.976 1.912 0
03-11-2012 23:30 92.1 % 11.774 3.581 0.86 2.165 0
03-11-2012 23:20 92.3 % 11.784 3.505 354.837 0.895 0
03-11-2012 23:10 92.6 % 11.783 3.568 24.352 0.682 0
03-11-2012 23:00 92.9 % 11.745 3.393 20.201 0.85 0
03-11-2012 22:50 92.6 % 11.718 3.201 31.321 0.658 0
03-11-2012 22:40 92.4 % 11.747 3.381 9.979 1.128 0
03-11-2012 22:30 92 % 11.819 3.495 30.576 2.509 0
03-11-2012 22:20 91.5 % 11.835 3.108 3.21 1.02 0
03-11-2012 22:10 91.1 % 11.883 2.865 25.136 2.328 0
03-11-2012 22:00 91.2 % 11.969 3.147 14.62 0.901 0
03-11-2012 21:50 91.1 % 11.987 3.259 24.638 1.675 0
03-11-2012 21:40 90.8 % 12.096 3.314 352.525 1.577 0
03-11-2012 21:30 90.4 % 12.171 3.392 5.706 1.685 0
03-11-2012 21:20 90.2 % 12.167 3.946 349.907 1.254 0
03-11-2012 21:10 89.6 % 12.174 3.984 5.299 1.292 0
03-11-2012 21:00 89 % 12.21 4.061 347.117 1.454 0

I dati sono presentati in modo automatico a scopo informativo. In seguito a verifica i dati possono subire modifiche o essere invalidati e non riportati negli archivi definitivi.